Location: Hradec Kralove
(50.2170°N, 15.8330°E)
Time: 13:17:03
(UTC+02:00)

Explorer 7 - Pass Details

Date: 27 January 2023
Orbit: 478 x 657 km, 50.3° (Epoch: 26 March)

Event Time Altitude Azimuth Distance (km) Brightness Sun altitude
Rises 20:36:55 0° 285° (WNW) 2,957 11.5 -37.3°
Enters shadow 20:40:34 14° 262° (W) 1,794 10.0 -37.9°
Maximum altitude 20:43:21 23° 219° (SW) 1,390 - -38.3°
Drops below altitude 10° 20:47:07 10° 168° (SSE) 2,071 - -38.9°
Sets 20:49:50 0° 154° (SSE) 2,974 - -39.3°
